Location: Allison's Woods
(35.8809°N, 80.8140°W)
Time: 18:44:39
(UTC-05:00)

Iridium 39 - Visible Passes

Search period start: 13 February 2016 00:00
Search period end: 23 February 2016 00:00
Orbit: 776 x 779 km, 86.4° (Epoch: 13 February)

Date Brightness Start Highest point End Pass type
(mag) Time Alt. Az. Time Alt. Az. Time Alt. Az.
13 Feb 7.2 05:34:03 10° SSE 05:38:57 44° E 05:43:53 10° NNE visible
14 Feb 8.4 05:01:37 10° SE 05:05:39 23° E 05:09:41 10° NNE visible
14 Feb 6.7 06:41:26 10° SSW 06:46:07 33° W 06:50:49 10° NNW visible
14 Feb 9.1 18:56:18 10° NW 18:59:00 14° W 19:01:42 10° WSW visible
15 Feb 9.2 04:30:34 10° E 04:32:27 12° ENE 04:34:20 10° ENE visible
15 Feb 6.0 06:07:20 10° SSW 06:12:29 65° W 06:17:41 10° N visible
16 Feb 6.4 05:33:51 10° S 05:38:59 66° E 05:44:10 10° N visible
17 Feb 7.7 05:00:58 10° SSE 05:05:36 34° E 05:10:16 10° NNE visible
17 Feb 7.1 06:42:16 10° SW 06:46:20 23° W 06:50:26 10° NNW visible
18 Feb 8.6 04:28:54 10° ESE 04:32:20 18° E 04:35:47 10° NE visible
18 Feb 6.3 06:07:42 10° SSW 06:12:38 43° W 06:17:36 10° NNW visible
19 Feb 5.9 05:33:51 10° S 05:39:04 84° W 05:44:19 10° N visible
20 Feb 6.9 05:00:36 10° SSE 05:05:37 50° E 05:10:39 10° NNE visible
21 Feb 8.0 04:28:00 10° SE 04:32:16 26° E 04:36:33 10° NNE visible
21 Feb 6.8 06:08:19 10° SW 06:12:50 29° W 06:17:21 10° NNW visible
22 Feb 8.9 03:56:29 10° ESE 03:59:03 14° E 04:01:37 10° NE visible
22 Feb 6.0 05:34:05 10° SSW 05:39:11 56° W 05:44:19 10° N visible
